Change the Weather History Date:

Thursday, June 13, 2013

  Actual Average Record
Temperature  
Mean Temperature 84 °F -  
Max Temperature 96 °F 83 °F 98 °F (2000)
Min Temperature 69 °F 65 °F 62 °F (2007)
Cooling Degree Days 18    
Growing Degree Days 34 (Base 50)    
Moisture  
Dew Point 72 °F    
Average Humidity 72    
Maximum Humidity 94    
Minimum Humidity 44    
Precipitation  
Precipitation 0.10 in - - ()
Sea Level Pressure  
Sea Level Pressure 29.78 in    
Wind  
Wind Speed 8 mph (SW)    
Max Wind Speed 31 mph    
Max Gust Speed 43 mph    
Visibility 8 miles    
Events Rain , Thunderstorm    
Averages and records for this station are not official NWS values.
T = Trace of Precipitation, MM = Missing Value Source: NWS Daily Summary

Daily Weather History Graph

Daily Weather History Graph

Search for Another Location

Airport or City:

Trip Planner

Search our weather history database for the weather conditions in past years. The results will help you decide how hot, cold, wet, or windy it might be!

Date:

Astronomy

Jun. 13, 2013 Rise Set
Actual Time 5:56 AM EDT 8:23 PM EDT
Civil Twilight 5:26 AM EDT 8:53 PM EDT
Nautical Twilight 4:50 AM EDT 9:29 PM EDT
Astronomical Twilight 4:10 AM EDT 10:09 PM EDT
Moon 10:21 AM EDT (6/13) 11:39 PM EDT (6/13)
Length of Visible Light 15h 26m
Length of Day
14h 27m
Waxing Crescent, 21% of the Moon is Illuminated
Jun 13
Waxing Crescent
Jun 16
First Quarter
Jun 23
Full
Jun 30
Last Quarter
Jul 8
New

Hourly Weather History & Observations

Time (EDT) Temp. Heat Index Dew Point Humidity Pressure Visibility Wind Dir Wind Speed Gust Speed Precip Events Conditions
12:56 AM 78.1 °F - 73.9 °F 87% 29.90 in 7.0 mi WSW 4.6 mph - N/A   Clear
1:56 AM 77.0 °F - 73.9 °F 90% 29.89 in 6.0 mi Calm Calm - N/A   Clear
2:42 AM 77.0 °F - 75.2 °F 94% 29.87 in 2.5 mi SW 4.6 mph - N/A   Clear
2:51 AM 78.8 °F - 75.2 °F 89% 29.87 in 7.0 mi SW 5.8 mph - N/A   Clear
2:56 AM 78.1 °F - 73.9 °F 87% 29.88 in 7.0 mi SW 5.8 mph - N/A   Clear
3:56 AM 78.1 °F - 73.9 °F 87% 29.87 in 7.0 mi WSW 6.9 mph - N/A   Clear
4:56 AM 77.0 °F - 73.9 °F 90% 29.87 in 7.0 mi WSW 6.9 mph - N/A   Clear
5:56 AM 77.0 °F - 73.9 °F 90% 29.86 in 7.0 mi SW 8.1 mph - N/A   Scattered Clouds
6:56 AM 78.1 °F - 75.0 °F 90% 29.85 in 6.0 mi SW 6.9 mph - N/A   Clear
7:56 AM 82.0 °F 88.6 °F 75.0 °F 79% 29.84 in 8.0 mi SW 8.1 mph - N/A   Clear
8:56 AM 84.9 °F 93.3 °F 75.0 °F 72% 29.83 in 9.0 mi SSW 9.2 mph - N/A   Clear
9:56 AM 89.1 °F 101.4 °F 77.0 °F 67% 29.82 in 9.0 mi SSW 8.1 mph - N/A   Clear
10:56 AM 91.0 °F 102.9 °F 75.9 °F 61% 29.81 in 9.0 mi SSW 12.7 mph - N/A   Clear
11:56 AM 93.0 °F 100.7 °F 72.0 °F 50% 29.79 in 10.0 mi SW 13.8 mph 21.9 mph N/A   Clear
12:56 PM 95.0 °F 102.5 °F 71.1 °F 46% 29.76 in 10.0 mi WSW 15.0 mph 24.2 mph N/A   Clear
1:56 PM 96.1 °F 103.5 °F 71.1 °F 44% 29.73 in 10.0 mi WSW 15.0 mph 21.9 mph N/A   Partly Cloudy
2:56 PM 96.1 °F 108.6 °F 75.0 °F 51% 29.70 in 10.0 mi SSW 9.2 mph 19.6 mph N/A   Partly Cloudy
3:56 PM 93.9 °F 106.9 °F 75.9 °F 56% 29.68 in 9.0 mi SSW 12.7 mph 21.9 mph N/A   Clear
4:56 PM 93.9 °F 105.4 °F 75.0 °F 54% 29.66 in 9.0 mi SW 16.1 mph 21.9 mph N/A   Clear
5:56 PM 91.9 °F 101.3 °F 73.9 °F 55% 29.65 in 9.0 mi SW 12.7 mph 23.0 mph N/A   Clear
6:56 PM 91.0 °F 101.6 °F 75.0 °F 59% 29.67 in 8.0 mi SW 10.4 mph 20.7 mph N/A   Clear
7:56 PM 88.0 °F 98.5 °F 75.9 °F 67% 29.69 in 7.0 mi SW 9.2 mph 18.4 mph N/A   Clear
8:28 PM 82.4 °F 82.5 °F 59.0 °F 45% 29.72 in 10.0 mi NW 31.1 mph 42.6 mph N/A Thunderstorm Thunderstorm
8:35 PM 82.4 °F 82.9 °F 60.8 °F 48% 29.72 in 10.0 mi NW 25.3 mph 40.3 mph 0.00 in Rain , Thunderstorm Light Thunderstorms and Rain
8:56 PM 73.0 °F - 66.0 °F 79% 29.74 in 8.0 mi West 8.1 mph - 0.09 in Rain , Thunderstorm Light Thunderstorms and Rain
10:03 PM 71.6 °F - 68.0 °F 88% 29.70 in 10.0 mi SW 8.1 mph - N/A   Clear
10:39 PM 71.6 °F - 68.0 °F 88% 29.71 in 10.0 mi WSW 3.5 mph - N/A Thunderstorm Thunderstorm
10:56 PM 73.0 °F - 69.1 °F 87% 29.74 in 9.0 mi WNW 8.1 mph - 0.01 in Rain , Thunderstorm Light Thunderstorms and Rain
11:42 PM 69.8 °F - 68.0 °F 94% 29.78 in 1.8 mi West 13.8 mph 24.2 mph 0.27 in Rain , Thunderstorm Heavy Thunderstorms and Rain